AXM819 VTSP-WMKK

Flight info

Callsign AXM819
Flight time 2h 7m
Altitude 37000
Route REBED1A REBED B579 VPL Y509 ANGUN Y508 NIREN NIREN1H
Aircraft A320/M-SDE3FGHIRWY/LB1

Departure

Time 2026-05-04 11:31
Airport Phuket International Airport (VTSP)

Arrival

Time 2026-05-04 13:39
Airport Kuala Lumpur International Airport (WMKK)
Time Latitude Longitude Altitude Speed Heading
2026-05-04 11:01 8.10983 98.30637 28 ft 0 kts 174°
2026-05-04 11:24 8.11063 98.30665 28 ft 4 kts 251°
2026-05-04 11:25 8.11066 98.30675 28 ft 0 kts 264°
2026-05-04 11:27 8.11039 98.30404 27 ft 10 kts 265°
2026-05-04 11:28 8.11072 98.30352 27 ft 9 kts 341°
2026-05-04 11:28 8.11130 98.30347 27 ft 8 kts 354°
2026-05-04 11:28 8.11180 98.30343 27 ft 7 kts
2026-05-04 11:28 8.11198 98.30368 27 ft 4 kts 85°
2026-05-04 11:29 8.11199 98.30372 27 ft 0 kts 85°
2026-05-04 11:29 8.11199 98.30374 27 ft 4 kts 85°
2026-05-04 11:29 8.11223 98.30642 28 ft 76 kts 85°
2026-05-04 11:31 8.12029 98.39215 2437 ft 248 kts 85°
2026-05-04 11:33 8.13242 98.52100 8121 ft 231 kts 85°
2026-05-04 11:33 8.13366 98.53591 8433 ft 198 kts 93°
2026-05-04 11:33 8.12890 98.54798 8394 ft 186 kts 134°
2026-05-04 11:34 8.11626 98.55270 7734 ft 214 kts 183°
2026-05-04 11:34 8.10191 98.54675 7103 ft 237 kts 219°
2026-05-04 11:34 8.09255 98.53329 6754 ft 240 kts 250°
2026-05-04 11:34 8.09000 98.51615 6170 ft 252 kts 272°
2026-05-04 11:35 8.09155 98.49849 5767 ft 252 kts 277°
2026-05-04 11:35 8.09402 98.48107 5394 ft 250 kts 281°
2026-05-04 11:35 8.09733 98.46419 5204 ft 242 kts 283°
2026-05-04 11:35 8.10115 98.44800 4948 ft 237 kts 285°
2026-05-04 11:36 8.10551 98.43235 4792 ft 228 kts 288°
2026-05-04 11:36 8.11063 98.41741 4480 ft 222 kts 291°
2026-05-04 11:36 8.11571 98.40249 3819 ft 232 kts 288°
2026-05-04 11:36 8.11607 98.38731 3692 ft 215 kts 247°
2026-05-04 11:37 8.10635 98.37654 3320 ft 208 kts 202°
2026-05-04 11:37 8.09247 98.37543 2904 ft 201 kts 160°
2026-05-04 11:37 8.08147 98.38318 2563 ft 197 kts 125°
2026-05-04 11:37 8.07771 98.39613 2191 ft 198 kts 88°
2026-05-04 11:38 8.08220 98.40909 1887 ft 197 kts 56°
2026-05-04 11:38 8.09215 98.41831 1618 ft 193 kts 27°
2026-05-04 11:38 8.10462 98.41946 1496 ft 180 kts 336°
2026-05-04 11:38 8.11290 98.41077 1288 ft 171 kts 286°
2026-05-04 11:39 8.11551 98.39947 1132 ft 164 kts 278°
2026-05-04 11:39 8.11707 98.38815 955 ft 160 kts 274°
2026-05-04 11:40 8.11413 98.32648 89 ft 134 kts 263°
2026-05-04 11:41 8.11327 98.31772 49 ft 113 kts 265°
2026-05-04 11:41 8.11270 98.31133 30 ft 70 kts 264°
2026-05-04 11:41 8.11239 98.30797 29 ft 33 kts 265°
2026-05-04 11:41 8.11219 98.30585 28 ft 21 kts 264°
2026-05-04 11:42 8.11208 98.30480 27 ft 13 kts 264°
2026-05-04 11:42 8.11198 98.30389 27 ft 13 kts 264°
2026-05-04 11:42 8.11189 98.30309 27 ft 0 kts 264°
2026-05-04 11:42 8.11189 98.30308 26 ft 0 kts 264°
2026-05-04 11:43 8.11189 98.30307 26 ft 1 kts 264°
2026-05-04 11:44 8.10983 98.30637 29 ft 1 kts 174°
2026-05-04 12:21 8.11007 98.30636 28 ft 4 kts 184°
2026-05-04 12:21 8.11033 98.30640 28 ft 4 kts 202°
2026-05-04 12:21 8.11055 98.30654 28 ft 4 kts 231°
2026-05-04 12:21 8.11066 98.30675 28 ft 1 kts 264°
2026-05-04 12:23 8.11066 98.30673 28 ft 2 kts 264°
2026-05-04 12:24 8.11062 98.30640 28 ft 5 kts 263°
2026-05-04 12:24 8.11059 98.30610 28 ft 4 kts 263°
2026-05-04 12:24 8.11055 98.30583 28 ft 5 kts 263°
2026-05-04 12:24 8.11050 98.30523 27 ft 9 kts 264°
2026-05-04 12:25 8.11042 98.30451 27 ft 14 kts 264°
2026-05-04 12:25 8.11045 98.30373 27 ft 9 kts 299°
2026-05-04 12:25 8.11098 98.30348 27 ft 10 kts 352°
2026-05-04 12:25 8.11184 98.30348 27 ft 9 kts 29°
2026-05-04 12:26 8.11205 98.30449 27 ft 29 kts 84°
2026-05-04 12:26 8.11248 98.30906 29 ft 98 kts 84°
2026-05-04 12:26 8.11331 98.31779 49 ft 149 kts 85°
2026-05-04 12:26 8.11424 98.32905 445 ft 162 kts 85°
2026-05-04 12:27 8.11516 98.34040 1057 ft 165 kts 87°
2026-05-04 12:27 8.11635 98.35234 1499 ft 181 kts 85°
2026-05-04 12:27 8.11768 98.36575 1776 ft 203 kts 85°
2026-05-04 12:27 8.11911 98.38068 2062 ft 223 kts 86°
2026-05-04 12:28 8.12067 98.39713 2365 ft 248 kts 85°
2026-05-04 12:28 8.12238 98.41505 2902 ft 262 kts 85°
2026-05-04 12:28 8.12413 98.43342 3771 ft 263 kts 85°
2026-05-04 12:28 8.12588 98.45185 4695 ft 265 kts 84°
2026-05-04 12:29 8.12764 98.47042 5544 ft 266 kts 85°
2026-05-04 12:29 8.12939 98.48910 6385 ft 269 kts 85°
2026-05-04 12:29 8.13116 98.50796 7138 ft 272 kts 85°
2026-05-04 12:29 8.13295 98.52709 7907 ft 275 kts 85°
2026-05-04 12:30 8.13476 98.54638 8676 ft 278 kts 85°
2026-05-04 12:30 8.13595 98.56591 9426 ft 281 kts 94°
2026-05-04 12:30 8.13119 98.58480 10092 ft 286 kts 114°
2026-05-04 12:30 8.11871 98.60163 10373 ft 309 kts 139°
2026-05-04 12:31 8.09942 98.61178 10897 ft 321 kts 163°
2026-05-04 12:31 8.07698 98.61420 11540 ft 327 kts 175°
2026-05-04 12:31 8.05411 98.61504 12193 ft 331 kts 176°
2026-05-04 12:31 8.03098 98.61581 12854 ft 334 kts 176°
2026-05-04 12:32 8.00759 98.61660 13493 ft 338 kts 176°
2026-05-04 12:32 7.96043 98.61821 14621 ft 344 kts 176°
2026-05-04 12:32 7.93635 98.61908 15173 ft 347 kts 176°
2026-05-04 12:33 7.91207 98.62000 15661 ft 353 kts 176°
2026-05-04 12:33 7.89519 98.62065 15761 ft 364 kts 176°
2026-05-04 12:33 7.86124 98.62190 16295 ft 373 kts 176°
2026-05-04 12:33 7.84363 98.62253 16636 ft 375 kts 176°
2026-05-04 12:34 7.81745 98.62345 17150 ft 378 kts 176°
2026-05-04 12:34 7.79107 98.62439 17673 ft 381 kts 176°
2026-05-04 12:34 7.76447 98.62546 18160 ft 384 kts 174°
2026-05-04 12:34 7.73814 98.63017 18578 ft 385 kts 162°
2026-05-04 12:35 7.71330 98.64014 18996 ft 385 kts 150°
2026-05-04 12:35 7.69120 98.65476 19411 ft 386 kts 139°
2026-05-04 12:35 7.67037 98.67197 19835 ft 389 kts 139°
2026-05-04 12:35 7.64938 98.68929 20257 ft 391 kts 139°
2026-05-04 12:36 7.62823 98.70670 20672 ft 394 kts 139°
2026-05-04 12:36 7.60696 98.72420 21076 ft 396 kts 139°
2026-05-04 12:36 7.58551 98.74182 21477 ft 399 kts 139°
2026-05-04 12:36 7.56392 98.75953 21875 ft 402 kts 139°
2026-05-04 12:37 7.54221 98.77737 22274 ft 404 kts 139°
2026-05-04 12:37 7.52038 98.79533 22675 ft 407 kts 139°
2026-05-04 12:37 7.49810 98.81362 23073 ft 409 kts 139°
2026-05-04 12:37 7.47598 98.83177 23456 ft 411 kts 139°
2026-05-04 12:38 7.45373 98.85004 23769 ft 413 kts 139°
2026-05-04 12:38 7.43136 98.86839 24079 ft 416 kts 139°
2026-05-04 12:38 7.40917 98.88656 24381 ft 418 kts 139°
2026-05-04 12:38 7.38655 98.90509 24683 ft 420 kts 139°
2026-05-04 12:39 7.36378 98.92373 24981 ft 423 kts 139°
2026-05-04 12:39 7.34094 98.94246 25279 ft 425 kts 139°
2026-05-04 12:39 7.31796 98.96132 25571 ft 427 kts 139°
2026-05-04 12:39 7.29482 98.98029 25865 ft 430 kts 139°
2026-05-04 12:40 7.27157 98.99934 26147 ft 432 kts 139°
2026-05-04 12:40 7.24821 99.01850 26424 ft 435 kts 139°
2026-05-04 12:40 7.22472 99.03778 26695 ft 437 kts 139°
2026-05-04 12:40 7.20108 99.05715 26968 ft 439 kts 140°
2026-05-04 12:41 7.17731 99.07660 27245 ft 441 kts 140°
2026-05-04 12:41 7.15347 99.09614 27502 ft 443 kts 140°
2026-05-04 12:41 7.12947 99.11580 27748 ft 446 kts 140°
2026-05-04 12:41 7.10539 99.13551 28027 ft 447 kts 140°
2026-05-04 12:42 7.08117 99.15531 28294 ft 449 kts 140°
2026-05-04 12:42 7.05684 99.17520 28562 ft 451 kts 140°
2026-05-04 12:42 7.03238 99.19519 28810 ft 454 kts 140°
2026-05-04 12:42 7.00788 99.21523 29059 ft 456 kts 140°
2026-05-04 12:43 6.98320 99.23541 29306 ft 458 kts 140°
2026-05-04 12:43 6.95842 99.25568 29548 ft 460 kts 140°
2026-05-04 12:43 6.93359 99.27603 29781 ft 462 kts 140°
2026-05-04 12:43 6.90863 99.29649 30010 ft 464 kts 140°
2026-05-04 12:44 6.88353 99.31703 30206 ft 465 kts 140°
2026-05-04 12:44 6.85833 99.33759 30413 ft 467 kts 140°
2026-05-04 12:44 6.83309 99.35815 30620 ft 468 kts 140°
2026-05-04 12:44 6.80777 99.37879 30829 ft 469 kts 140°
2026-05-04 12:45 6.78239 99.39950 31035 ft 470 kts 140°
2026-05-04 12:45 6.75701 99.42026 31281 ft 470 kts 140°
2026-05-04 12:45 6.73174 99.44094 31613 ft 468 kts 140°
2026-05-04 12:45 6.70650 99.46160 31922 ft 467 kts 140°
2026-05-04 12:46 6.68134 99.48215 32240 ft 465 kts 140°
2026-05-04 12:46 6.65628 99.50257 32559 ft 463 kts 140°
2026-05-04 12:46 6.63128 99.52296 32857 ft 463 kts 140°
2026-05-04 12:46 6.60630 99.54335 33142 ft 462 kts 141°
2026-05-04 12:47 6.58138 99.56370 33423 ft 461 kts 141°
2026-05-04 12:47 6.55652 99.58402 33722 ft 460 kts 141°
2026-05-04 12:47 6.53163 99.60435 33992 ft 460 kts 141°
2026-05-04 12:47 6.50681 99.62461 34223 ft 459 kts 141°
2026-05-04 12:48 6.48201 99.64483 34457 ft 459 kts 141°
2026-05-04 12:48 6.45725 99.66498 34709 ft 458 kts 141°
2026-05-04 12:48 6.43236 99.68489 34961 ft 456 kts 142°
2026-05-04 12:48 6.40737 99.70449 35188 ft 456 kts 142°
2026-05-04 12:49 6.38229 99.72393 35430 ft 454 kts 142°
2026-05-04 12:49 6.35583 99.74115 35681 ft 454 kts 152°
2026-05-04 12:49 6.32694 99.75392 35952 ft 454 kts 161°
2026-05-04 12:49 6.29680 99.76341 36151 ft 454 kts 162°
2026-05-04 12:50 6.26670 99.77277 36360 ft 453 kts 162°
2026-05-04 12:50 6.23658 99.78219 36551 ft 453 kts 162°
2026-05-04 12:50 6.20649 99.79162 36761 ft 452 kts 162°
2026-05-04 12:50 6.17648 99.80106 36874 ft 452 kts 162°
2026-05-04 12:51 6.14652 99.81051 36891 ft 450 kts 162°
2026-05-04 12:51 6.08682 99.82931 36893 ft 449 kts 162°
2026-05-04 12:52 6.02740 99.84793 36893 ft 452 kts 162°
2026-05-04 12:52 5.96738 99.86667 36895 ft 451 kts 162°
2026-05-04 12:53 5.90746 99.88540 36896 ft 451 kts 162°
2026-05-04 12:53 5.84754 99.90416 36894 ft 451 kts 162°
2026-05-04 12:54 5.78763 99.92299 36895 ft 451 kts 161°
2026-05-04 12:54 5.72768 99.94174 36896 ft 451 kts 162°
2026-05-04 12:55 5.66770 99.96039 36900 ft 451 kts 162°
2026-05-04 12:55 5.60776 99.97912 36902 ft 451 kts 162°
2026-05-04 12:56 5.54788 99.99795 36899 ft 451 kts 162°
2026-05-04 12:56 5.48805 100.01671 36898 ft 450 kts 162°
2026-05-04 12:57 5.42822 100.03533 36894 ft 450 kts 162°
2026-05-04 12:57 5.36841 100.05400 36888 ft 450 kts 162°
2026-05-04 12:58 5.30862 100.07274 36885 ft 450 kts 162°
2026-05-04 12:58 5.24885 100.09142 36884 ft 450 kts 162°
2026-05-04 12:59 5.18912 100.11006 36870 ft 450 kts 162°
2026-05-04 12:59 5.12922 100.12870 36868 ft 451 kts 162°
2026-05-04 13:00 5.06893 100.14640 36858 ft 452 kts 164°
2026-05-04 13:00 5.00839 100.16333 36859 ft 452 kts 164°
2026-05-04 13:01 4.94786 100.18034 36871 ft 452 kts 163°
2026-05-04 13:01 4.88777 100.19753 36872 ft 452 kts 163°
2026-05-04 13:02 4.82730 100.21494 36885 ft 452 kts 162°
2026-05-04 13:02 4.76687 100.23227 36893 ft 452 kts 163°
2026-05-04 13:03 4.70646 100.24961 36894 ft 451 kts 163°
2026-05-04 13:03 4.64619 100.26687 36894 ft 451 kts 163°
2026-05-04 13:04 4.58587 100.28411 36893 ft 450 kts 163°
2026-05-04 13:04 4.52556 100.30133 36891 ft 451 kts 163°
2026-05-04 13:05 4.46525 100.31852 36897 ft 451 kts 163°
2026-05-04 13:05 4.40495 100.33579 36899 ft 451 kts 163°
2026-05-04 13:06 4.34461 100.35306 36908 ft 451 kts 163°
2026-05-04 13:06 4.28412 100.36992 36907 ft 451 kts 165°
2026-05-04 13:07 4.22331 100.38414 36906 ft 452 kts 167°
2026-05-04 13:07 4.16185 100.39732 36910 ft 452 kts 167°
2026-05-04 13:08 4.10049 100.41095 36911 ft 452 kts 166°
2026-05-04 13:08 4.03927 100.42511 36915 ft 451 kts 166°
2026-05-04 13:08 4.00874 100.43220 36509 ft 452 kts 166°
2026-05-04 13:09 3.97761 100.43940 35292 ft 466 kts 166°
2026-05-04 13:09 3.94589 100.44670 34702 ft 465 kts 166°
2026-05-04 13:09 3.91445 100.45390 34179 ft 462 kts 166°
2026-05-04 13:09 3.88315 100.46103 33571 ft 460 kts 166°
2026-05-04 13:10 3.85203 100.46810 33008 ft 457 kts 166°
2026-05-04 13:10 3.82118 100.47513 32448 ft 453 kts 166°
2026-05-04 13:10 3.79061 100.48216 31901 ft 449 kts 166°
2026-05-04 13:10 3.76022 100.48915 31362 ft 446 kts 166°
2026-05-04 13:11 3.73002 100.49609 30829 ft 443 kts 165°
2026-05-04 13:11 3.70005 100.50296 30301 ft 440 kts 165°
2026-05-04 13:11 3.67029 100.50973 29736 ft 438 kts 165°
2026-05-04 13:11 3.64075 100.51648 29214 ft 433 kts 165°
2026-05-04 13:12 3.61154 100.52316 28717 ft 428 kts 165°
2026-05-04 13:12 3.55431 100.53628 27762 ft 418 kts 165°
2026-05-04 13:12 3.52639 100.54352 27303 ft 411 kts 159°
2026-05-04 13:13 3.50094 100.55514 26849 ft 404 kts 147°
2026-05-04 13:13 3.47848 100.57154 26505 ft 395 kts 136°
2026-05-04 13:13 3.45913 100.59059 26163 ft 388 kts 134°
2026-05-04 13:13 3.44017 100.60953 25827 ft 382 kts 135°
2026-05-04 13:14 3.41918 100.62552 25478 ft 380 kts 152°
2026-05-04 13:14 3.39405 100.63321 25131 ft 381 kts 174°
2026-05-04 13:14 3.36753 100.63396 24809 ft 381 kts 177°
2026-05-04 13:14 3.34104 100.63434 24480 ft 380 kts 177°
2026-05-04 13:15 3.31465 100.63470 24152 ft 378 kts 177°
2026-05-04 13:15 3.28842 100.63506 23831 ft 376 kts 177°
2026-05-04 13:15 3.26240 100.63663 23507 ft 372 kts 166°
2026-05-04 13:15 3.23804 100.64462 23129 ft 368 kts 157°
2026-05-04 13:16 3.21421 100.65378 22741 ft 366 kts 158°
2026-05-04 13:16 3.19032 100.66245 22479 ft 365 kts 159°
2026-05-04 13:16 3.16642 100.67089 22233 ft 364 kts 159°
2026-05-04 13:16 3.14258 100.67928 21987 ft 362 kts 159°
2026-05-04 13:17 3.11967 100.68944 21737 ft 359 kts 148°
2026-05-04 13:17 3.09971 100.70411 21491 ft 356 kts 135°
2026-05-04 13:17 3.08343 100.72258 21254 ft 353 kts 125°
2026-05-04 13:17 3.06895 100.74234 21011 ft 352 kts 125°
2026-05-04 13:18 3.02619 100.80004 20316 ft 349 kts 126°
2026-05-04 13:18 3.01188 100.81921 20081 ft 347 kts 126°
2026-05-04 13:19 2.99748 100.83854 19847 ft 346 kts 126°
2026-05-04 13:19 2.98312 100.85782 19624 ft 345 kts 126°
2026-05-04 13:19 2.96883 100.87702 19398 ft 343 kts 126°
2026-05-04 13:19 2.95516 100.89650 19166 ft 342 kts 119°
2026-05-04 13:20 2.94501 100.91791 18942 ft 340 kts 112°
2026-05-04 13:20 2.93571 100.93962 18719 ft 339 kts 112°
2026-05-04 13:20 2.92640 100.96126 18496 ft 338 kts 112°
2026-05-04 13:20 2.91709 100.98283 18274 ft 337 kts 112°
2026-05-04 13:21 2.90776 101.00434 18037 ft 336 kts 114°
2026-05-04 13:21 2.89621 101.02497 17768 ft 336 kts 121°
2026-05-04 13:21 2.88388 101.04476 17508 ft 335 kts 121°
2026-05-04 13:21 2.87169 101.06417 17270 ft 334 kts 121°
2026-05-04 13:22 2.85917 101.08403 17019 ft 332 kts 121°
2026-05-04 13:22 2.84705 101.10328 16773 ft 331 kts 121°
2026-05-04 13:22 2.83480 101.12277 16530 ft 330 kts 121°
2026-05-04 13:22 2.82261 101.14220 16291 ft 329 kts 121°
2026-05-04 13:23 2.81048 101.16155 16049 ft 328 kts 121°
2026-05-04 13:23 2.79837 101.18084 15810 ft 327 kts 121°
2026-05-04 13:23 2.78629 101.20007 15572 ft 326 kts 121°
2026-05-04 13:23 2.77424 101.21924 15339 ft 325 kts 121°
2026-05-04 13:24 2.76224 101.23832 15104 ft 324 kts 121°
2026-05-04 13:24 2.75026 101.25735 14864 ft 323 kts 121°
2026-05-04 13:24 2.73834 101.27630 14649 ft 320 kts 121°
2026-05-04 13:25 2.71481 101.31377 13967 ft 318 kts 121°
2026-05-04 13:25 2.70303 101.33253 13565 ft 319 kts 122°
2026-05-04 13:25 2.69124 101.35130 13162 ft 319 kts 122°
2026-05-04 13:25 2.67945 101.37006 12776 ft 318 kts 122°
2026-05-04 13:26 2.66778 101.38865 12476 ft 313 kts 121°
2026-05-04 13:26 2.65622 101.40705 12121 ft 312 kts 122°
2026-05-04 13:26 2.64468 101.42539 11740 ft 311 kts 121°
2026-05-04 13:26 2.63316 101.44371 11354 ft 311 kts 122°
2026-05-04 13:27 2.62183 101.46174 11155 ft 303 kts 121°
2026-05-04 13:27 2.61062 101.47958 10774 ft 303 kts 121°
2026-05-04 13:27 2.59940 101.49745 10402 ft 303 kts 121°
2026-05-04 13:27 2.58822 101.51526 10048 ft 302 kts 121°
2026-05-04 13:28 2.57703 101.53304 9694 ft 301 kts 121°
2026-05-04 13:28 2.56590 101.55076 9289 ft 299 kts 122°
2026-05-04 13:28 2.55493 101.56826 8645 ft 296 kts 121°
2026-05-04 13:28 2.54403 101.58562 8069 ft 291 kts 122°
2026-05-04 13:29 2.53343 101.60247 7652 ft 281 kts 122°
2026-05-04 13:29 2.52301 101.61901 7236 ft 281 kts 122°
2026-05-04 13:29 2.51270 101.63540 6813 ft 283 kts 122°
2026-05-04 13:29 2.50220 101.65207 6397 ft 284 kts 122°
2026-05-04 13:30 2.49160 101.66889 5937 ft 286 kts 122°
2026-05-04 13:30 2.48096 101.68575 5493 ft 287 kts 122°
2026-05-04 13:30 2.47036 101.70257 5108 ft 285 kts 122°
2026-05-04 13:30 2.45983 101.71928 4655 ft 286 kts 122°
2026-05-04 13:31 2.44934 101.73598 4351 ft 281 kts 122°
2026-05-04 13:31 2.43895 101.75254 3893 ft 281 kts 122°
2026-05-04 13:31 2.43193 101.76371 3602 ft 281 kts 122°
2026-05-04 13:31 2.42325 101.78107 3203 ft 279 kts 105°
2026-05-04 13:32 2.42142 101.79990 2805 ft 276 kts 83°
2026-05-04 13:32 2.42688 101.81792 2551 ft 269 kts 60°
2026-05-04 13:32 2.43710 101.83344 2523 ft 268 kts 53°
2026-05-04 13:32 2.45014 101.84626 2527 ft 257 kts 27°
2026-05-04 13:33 2.46640 101.85113 2523 ft 240 kts
2026-05-04 13:33 2.48264 101.84818 2526 ft 239 kts 334°
2026-05-04 13:33 2.49676 101.83951 2520 ft 239 kts 325°
2026-05-04 13:33 2.51059 101.83013 2530 ft 240 kts 325°
2026-05-04 13:34 2.52444 101.82081 2517 ft 240 kts 325°
2026-05-04 13:34 2.53821 101.81158 2512 ft 232 kts 325°
2026-05-04 13:34 2.55124 101.80286 2512 ft 222 kts 326°
2026-05-04 13:34 2.56383 101.79442 2504 ft 213 kts 326°
2026-05-04 13:35 2.57605 101.78623 2512 ft 210 kts 325°
2026-05-04 13:35 2.59981 101.77030 2415 ft 198 kts 326°
2026-05-04 13:35 2.61097 101.76282 2188 ft 190 kts 326°
2026-05-04 13:36 2.62160 101.75570 1952 ft 178 kts 326°
2026-05-04 13:36 2.63156 101.74902 1737 ft 169 kts 326°
2026-05-04 13:36 2.64120 101.74255 1524 ft 165 kts 326°
2026-05-04 13:36 2.65072 101.73617 1314 ft 164 kts 326°
2026-05-04 13:37 2.66011 101.72988 1119 ft 160 kts 326°
2026-05-04 13:37 2.66898 101.72393 918 ft 149 kts 327°
2026-05-04 13:37 2.67743 101.71826 758 ft 144 kts 326°
2026-05-04 13:37 2.68571 101.71272 592 ft 143 kts 326°
2026-05-04 13:38 2.69395 101.70719 407 ft 142 kts 326°
2026-05-04 13:38 2.70217 101.70169 235 ft 142 kts 326°
2026-05-04 13:38 2.71039 101.69619 46 ft 140 kts 326°
2026-05-04 13:38 2.71757 101.69137 40 ft 103 kts 326°
2026-05-04 13:39 2.72210 101.68832 37 ft 59 kts 326°
2026-05-04 13:39 2.72503 101.68643 38 ft 36 kts 342°
2026-05-04 13:39 2.72733 101.68614 37 ft 31 kts 354°
2026-05-04 13:39 2.72932 101.68556 39 ft 22 kts 326°
2026-05-04 13:40 2.73060 101.68469 39 ft 23 kts 325°
2026-05-04 13:40 2.73198 101.68375 38 ft 25 kts 326°
2026-05-04 13:40 2.73344 101.68276 38 ft 26 kts 326°
2026-05-04 13:40 2.73476 101.68187 38 ft 24 kts 326°
2026-05-04 13:41 2.73605 101.68102 37 ft 13 kts 326°
2026-05-04 13:41 2.73681 101.68119 37 ft 12 kts 55°
2026-05-04 13:41 2.73686 101.68181 40 ft 8 kts 97°
2026-05-04 13:42 2.73753 101.68299 40 ft 14 kts 56°
2026-05-04 13:42 2.73806 101.68377 42 ft 13 kts 56°
2026-05-04 13:42 2.73855 101.68450 42 ft 12 kts 56°
2026-05-04 13:42 2.73899 101.68514 40 ft 10 kts 56°
2026-05-04 13:43 2.73944 101.68581 42 ft 14 kts 56°
2026-05-04 13:43 2.73997 101.68662 42 ft 16 kts 57°
2026-05-04 13:43 2.74076 101.68778 41 ft 18 kts 56°
2026-05-04 13:43 2.74149 101.68888 42 ft 19 kts 58°
2026-05-04 13:44 2.74227 101.69002 42 ft 21 kts 55°
2026-05-04 13:44 2.74273 101.69093 42 ft 9 kts 111°
2026-05-04 13:44 2.74229 101.69124 42 ft 7 kts 146°
2026-05-04 13:44 2.74214 101.69134 42 ft 0 kts 146°